Weather History for Niagara Falls, NY

Change the Weather History Date:

Tuesday, January 21, 2014

  Actual Average Record
Temperature  
Mean Temperature 6 °F -  
Max Temperature 10 °F 26 °F 44 °F (1993)
Min Temperature 3 °F 13 °F -7 °F (2005)
Degree Days  
Heating Degree Days 58    
Moisture  
Dew Point 0 °F    
Average Humidity 76    
Maximum Humidity 85    
Minimum Humidity 67    
Precipitation  
Precipitation 0.01 in - - ()
Snow  
Snow 0.00 in - - ()
Snow Depth 1.00 in    
Sea Level Pressure  
Sea Level Pressure 30.11 in    
Wind  
Wind Speed 9 mph (NNE)    
Max Wind Speed 15 mph    
Max Gust Speed -    
Visibility 3 miles    
Events Snow    
Averages and records for this station are not official NWS values.
T = Trace of Precipitation, MM = Missing Value Source: NWS Daily Summary

Daily Weather History Graph

Daily Weather History Graph

Search for Another Location

Airport:

Trip Planner

Search our weather history database for the weather conditions in past years. The results will help you decide how hot, cold, wet, or windy it might be!

Date:

Astronomy

Jan. 21, 2014 Rise Set
Actual Time 7:40 AM EST 5:13 PM EST
Civil Twilight 7:09 AM EST 5:44 PM EST
Nautical Twilight 6:35 AM EST 6:19 PM EST
Astronomical Twilight 6:01 AM EST 6:53 PM EST
Moon 10:55 PM EST (1/21) 10:00 AM EST (1/21)
Length of Visible Light 10h 34m
Length of Day
9h 32m
Waning Gibbous, 75% of the Moon is Illuminated
Jan 21
Waning Gibbous
Jan 24
Last Quarter
Jan 30
New
Feb 6
First Quarter
Feb 14
Full

Hourly Weather History & Observations

Time (EST) Temp. Windchill Dew Point Humidity Pressure Visibility Wind Dir Wind Speed Gust Speed Precip Events Conditions
12:37 AM 10.4 °F -2.4 °F 3.2 °F 73% 30.03 in 2.5 mi NNE 9.2 mph - 0.00 in Snow Light Snow
12:46 AM 10.4 °F -0.4 °F 5.0 °F 79% 30.03 in 1.8 mi NNE 6.9 mph - 0.00 in Snow Light Snow
12:53 AM 10.0 °F -3.7 °F 5.0 °F 80% 30.10 in 1.5 mi NNE 10.4 mph - 0.00 in Snow Light Snow
1:21 AM 8.6 °F -6.3 °F 3.2 °F 79% 30.03 in 2.5 mi NNE 11.5 mph - 0.00 in Snow Light Snow
1:30 AM 8.6 °F -5.5 °F 3.2 °F 79% 30.03 in 1.8 mi NNE 10.4 mph - 0.00 in Snow Light Snow
1:46 AM 8.6 °F -4.7 °F 3.2 °F 79% 30.04 in 2.0 mi NNE 9.2 mph - 0.00 in Snow Light Snow
1:53 AM 8.1 °F -5.3 °F 3.0 °F 80% 30.11 in 1.8 mi NNE 9.2 mph - 0.00 in Snow Light Snow
2:08 AM 8.6 °F -3.7 °F 3.2 °F 79% 30.04 in 2.5 mi NE 8.1 mph - 0.00 in Snow Light Snow
2:18 AM 8.6 °F -5.5 °F 1.4 °F 73% 30.05 in 1.5 mi NNE 10.4 mph - 0.00 in Snow Light Snow
2:27 AM 8.6 °F -6.3 °F 1.4 °F 73% 30.05 in 2.5 mi NNE 11.5 mph - 0.00 in Snow Light Snow
2:42 AM 6.8 °F -7.8 °F 1.4 °F 79% 30.06 in 3.0 mi NNE 10.4 mph - 0.00 in Snow Light Snow
2:49 AM 6.8 °F -6.9 °F 1.4 °F 79% 30.06 in 2.5 mi NNE 9.2 mph - 0.00 in Snow Light Snow
2:53 AM 7.0 °F -5.7 °F 1.9 °F 80% 30.13 in 2.5 mi NNE 8.1 mph - 0.00 in Snow Light Snow
3:08 AM 6.8 °F -5.9 °F 1.4 °F 79% 30.06 in 2.5 mi NE 8.1 mph - 0.00 in Snow Light Snow
3:26 AM 6.8 °F -4.8 °F 1.4 °F 79% 30.06 in 3.0 mi ENE 6.9 mph - 0.00 in Snow Light Snow
3:34 AM 6.8 °F -4.8 °F 1.4 °F 79% 30.06 in 2.0 mi NE 6.9 mph - 0.00 in Snow Light Snow
3:44 AM 6.8 °F -3.5 °F 1.4 °F 79% 30.06 in 3.0 mi ENE 5.8 mph - 0.00 in Snow Light Snow
3:53 AM 6.1 °F -5.6 °F 1.0 °F 80% 30.13 in 3.0 mi ENE 6.9 mph - 0.00 in Snow Light Snow
4:53 AM 5.0 °F -4.1 °F -0.0 °F 80% 30.12 in 10.0 mi NE 4.6 mph - 0.00 in   Overcast
5:53 AM 5.0 °F -6.9 °F -0.0 °F 80% 30.13 in 10.0 mi NNE 6.9 mph - N/A   Overcast
6:53 AM 5.0 °F - -0.0 °F 80% 30.13 in 3.0 mi Calm Calm - 0.00 in Snow Light Snow
7:04 AM 5.0 °F - 1.4 °F 85% 30.05 in 2.5 mi Calm Calm - 0.00 in Snow Light Snow
7:17 AM 5.0 °F - 1.4 °F 85% 30.06 in 1.0 mi Calm Calm - 0.01 in Snow Light Snow
7:28 AM 5.0 °F - 1.4 °F 85% 30.06 in 1.5 mi Calm Calm - 0.01 in Snow Light Snow
7:34 AM 5.0 °F - -0.4 °F 78% 30.06 in 2.5 mi Calm Calm - 0.01 in Snow Light Snow
7:39 AM 3.2 °F -4.2 °F -0.4 °F 85% 30.07 in 3.0 mi North 3.5 mph - 0.01 in Snow Light Snow
7:49 AM 5.0 °F -2.1 °F -0.4 °F 78% 30.07 in 1.5 mi NNE 3.5 mph - 0.01 in Snow Light Snow
7:53 AM 5.0 °F - 1.0 °F 84% 30.15 in 1.5 mi Calm Calm - 0.01 in Snow Light Snow
8:01 AM 6.8 °F -0.1 °F 1.4 °F 79% 30.08 in 0.8 mi North 3.5 mph - 0.00 in Snow Light Snow
8:11 AM 6.8 °F -6.9 °F 1.4 °F 79% 30.09 in 2.0 mi North 9.2 mph - 0.00 in Snow Light Snow
8:16 AM 5.0 °F -10.0 °F -0.4 °F 78% 30.09 in 3.0 mi North 10.4 mph - 0.00 in Snow Light Snow
8:32 AM 5.0 °F -8.1 °F -0.4 °F 78% 30.10 in 7.0 mi North 8.1 mph - 0.00 in   Mostly Cloudy
8:49 AM 5.0 °F -8.1 °F -0.4 °F 78% 30.10 in 7.0 mi North 8.1 mph - 0.00 in Snow Light Snow
8:53 AM 6.1 °F -6.8 °F -0.0 °F 76% 30.18 in 5.0 mi North 8.1 mph - 0.00 in Snow Light Snow
9:25 AM 6.8 °F -7.8 °F -0.4 °F 72% 30.11 in 3.0 mi North 10.4 mph - 0.00 in Snow Light Snow
9:53 AM 6.1 °F -7.8 °F -0.9 °F 73% 30.20 in 4.0 mi North 9.2 mph - 0.00 in Snow Light Snow
10:38 AM 6.8 °F -9.3 °F -0.4 °F 72% 30.12 in 1.2 mi NNE 12.7 mph - 0.00 in Snow Light Snow
10:50 AM 8.6 °F -7.0 °F 1.4 °F 73% 30.12 in 1.5 mi NNE 12.7 mph - 0.00 in Snow Light Snow
10:53 AM 8.1 °F -9.0 °F -0.0 °F 70% 30.20 in 1.5 mi NNE 15.0 mph - 0.00 in Snow Light Snow
10:59 AM 8.6 °F -7.7 °F -0.4 °F 67% 30.12 in 2.0 mi NNE 13.8 mph - 0.00 in Snow Light Snow
11:02 AM 8.6 °F -6.3 °F -0.4 °F 67% 30.12 in 3.0 mi NNE 11.5 mph - 0.00 in Snow Light Snow
11:32 AM 6.8 °F -7.8 °F -2.2 °F 67% 30.11 in 8.0 mi NNE 10.4 mph - 0.00 in Snow Light Snow
11:53 AM 8.1 °F -6.2 °F -0.9 °F 67% 30.18 in 8.0 mi NNE 10.4 mph - 0.00 in Snow Light Snow
12:16 PM 6.8 °F -9.3 °F -0.4 °F 72% 30.10 in 2.5 mi NNE 12.7 mph - 0.00 in Snow Light Snow
12:37 PM 6.8 °F -10.0 °F -0.4 °F 72% 30.09 in 3.0 mi NNE 13.8 mph - 0.00 in Snow Light Snow
12:53 PM 7.0 °F -8.3 °F -0.9 °F 70% 30.17 in 3.0 mi NNE 11.5 mph - 0.00 in Snow Light Snow
1:41 PM 6.8 °F -9.3 °F -0.4 °F 72% 30.09 in 1.8 mi North 12.7 mph - 0.00 in Snow Light Snow
1:48 PM 6.8 °F -8.6 °F -0.4 °F 72% 30.09 in 1.5 mi NNE 11.5 mph - 0.00 in Snow Light Snow
1:53 PM 6.1 °F -8.7 °F -0.0 °F 76% 30.17 in 1.5 mi NNE 10.4 mph - 0.00 in Snow Light Snow
1:56 PM 6.8 °F -9.3 °F -0.4 °F 72% 30.08 in 1.2 mi NNE 12.7 mph - 0.00 in Snow Light Snow
2:00 PM 6.8 °F -8.6 °F -0.4 °F 72% 30.08 in 1.8 mi NNE 11.5 mph - 0.00 in Snow Light Snow
2:18 PM 6.8 °F -6.9 °F -0.4 °F 72% 30.08 in 1.5 mi North 9.2 mph - 0.00 in Snow Light Snow
2:28 PM 6.8 °F -9.3 °F -0.4 °F 72% 30.08 in 2.0 mi North 12.7 mph - 0.00 in Snow Light Snow
2:47 PM 6.8 °F -9.3 °F -0.4 °F 72% 30.08 in 1.8 mi North 12.7 mph - 0.00 in Snow Light Snow
2:49 PM 6.8 °F -9.3 °F -0.4 °F 72% 30.08 in 2.5 mi North 12.7 mph - 0.00 in Snow Light Snow
2:53 PM 6.1 °F -9.5 °F -0.9 °F 73% 30.17 in 3.0 mi North 11.5 mph - 0.00 in Snow Light Snow
3:20 PM 5.0 °F -10.8 °F -2.2 °F 72% 30.08 in 5.0 mi North 11.5 mph - 0.00 in Snow Light Snow
3:42 PM 5.0 °F -11.6 °F -2.2 °F 72% 30.09 in 7.0 mi NNE 12.7 mph - 0.00 in   Mostly Cloudy
3:49 PM 5.0 °F -9.1 °F -2.2 °F 72% 30.09 in 7.0 mi North 9.2 mph - 0.00 in Snow Light Snow
3:53 PM 5.0 °F -10.0 °F -2.0 °F 73% 30.17 in 5.0 mi North 10.4 mph - 0.00 in Snow Light Snow
4:53 PM 3.9 °F -11.3 °F -2.9 °F 73% 30.19 in 6.0 mi North 10.4 mph - 0.00 in Snow Light Snow
5:36 PM 3.2 °F -11.3 °F -2.2 °F 78% 30.11 in 5.0 mi North 9.2 mph - 0.00 in Snow Light Snow
5:53 PM 3.9 °F -8.2 °F -2.0 °F 76% 30.20 in 5.0 mi North 6.9 mph - 0.00 in Snow Light Snow
6:53 PM 3.9 °F -6.9 °F -2.0 °F 76% 30.20 in 5.0 mi NE 5.8 mph - 0.00 in Snow Light Snow
7:53 PM 3.9 °F -8.2 °F -2.9 °F 73% 30.21 in 6.0 mi North 6.9 mph - 0.00 in Snow Light Snow
8:53 PM 3.9 °F -9.4 °F -2.9 °F 73% 30.21 in 3.0 mi North 8.1 mph - 0.00 in Snow Light Snow
9:53 PM 3.9 °F -6.9 °F -2.0 °F 76% 30.22 in 3.0 mi North 5.8 mph - 0.00 in Snow Light Snow
10:53 PM 3.9 °F -8.2 °F -2.0 °F 76% 30.20 in 5.0 mi NNW 6.9 mph - 0.00 in Snow Light Snow
11:14 PM 3.2 °F -6.2 °F -2.2 °F 78% 30.11 in 5.0 mi North 4.6 mph - 0.00 in Snow Light Snow
11:53 PM 3.9 °F -3.4 °F -2.0 °F 76% 30.19 in 4.0 mi NNE 3.5 mph - 0.00 in Snow Light Snow